[[{"header":{"parameterUnit":"m.s-1","parameterCategory":1,"la1":30.2991,"la2":30.254,"lo1":-89.0895,"lo2":-89.0444,"dy":0.0017,"dx":0.0017,"nx":28,"ny":28,"refTime":"2025-11-12T03:00:00:Z","depth":0,"parameterNumber":2,"parameterNumberName":"U-component_of_WINDS"},"data":[0,0,0,0,0,0,0,0,0,0,0,0,0,0,0,0,0,0,0,0,0,0,0,0,0,0,0,0,0,0,0,0,0,0,0,0,0,0,0,0,0,0,0,0,0,0,0,0,0,0,0,0,0,0,0,0,0,0,0.7257,0.7258,0,0.7438,0.744,0.7442,0.7502,0.7502,0.7501,0.75,0.7687,0.7693,0.7698,0,0,0,0,0,0,0,0,0,0,0,0,0,0.6964,0.6969,0.7256,0.7259,0.7261,0.7438,0.744,0.7443,0.7503,0.7502,0.7501,0.75,0.7685,0.7692,0.7699,0,0,0,0,0,0,0,0,0,0,0,0,0,0.7112,0.697,0.7256,0.7312,0.7319,0.7437,0.744,0.7443,0.7503,0.7502,0.75,0.7499,0.7683,0.7691,0.77,0.7776,0,0,0.7726,0.773,0,0,0,0,0,0,0,0,0.7104,0.7123,0.7302,0.7308,0.7316,0.7446,0.7406,0.7555,0.7503,0.7433,0.75,0.7499,0.7608,0.7623,0.7659,0.7785,0.7793,0.7727,0.7732,0.7736,0.7738,0,0,0,0,0,0,0,0.7094,0.7116,0.7328,0.7304,0.7313,0.7329,0.7349,0.7434,0.7525,0.7439,0.7444,0.7464,0.7612,0.7651,0.7664,0.7795,0.7727,0.7734,0.7739,0.7743,0.7993,0.7994,0,0,0,0,0,0,0.7074,0.7107,0.7322,0.7334,0.7205,0.7335,0.7357,0.7406,0.7524,0.7541,0.7465,0.7467,0.7637,0.7654,0.7671,0.7768,0.7736,0.7744,0.7748,0.7991,0.7993,0.7995,0,0,0,0,0,0,0.7067,0.7092,0.7315,0.7222,0.7251,0.7341,0.7395,0.741,0.7449,0.7544,0.756,0.7488,0.7637,0.7659,0.7749,0.7775,0.7747,0.7755,0.7989,0.7992,0.7994,0.7961,0,0,0,0,0,0,0.7058,0.709,0.7119,0.7222,0.7256,0.739,0.7397,0.7414,0.7463,0.7467,0.757,0.7586,0.7638,0.7736,0.7758,0.7786,0.7762,0.7988,0.799,0.7993,0.796,0.7962,0.7964,0,0,0,0,0,0.7048,0.7102,0.712,0.7146,0.7294,0.7391,0.7411,0.7468,0.7465,0.7496,0.7557,0.7583,0.7769,0.7745,0.777,0.7801,0.7986,0.799,0.7993,0.796,0.7962,0.7964,0,0,0,0,0,0,0.7,0.7117,0.7137,0.7227,0.7299,0.7401,0.7441,0.7469,0.7543,0.7543,0.7612,0.7635,0.772,0.777,0.7741,0.7881,0.7879,0.7887,0.7845,0.7848,0.7849,0.7835,0.7769,0,0,0,0,0,0.7,0.7068,0.7167,0.7237,0.7271,0.735,0.7394,0.7433,0.751,0.754,0.7608,0.7682,0.7758,0.7806,0.7881,0.7969,0.7992,0.8003,0.8004,0.8005,0.8011,0.8062,0.8067,0.8006,0.8006,0.8006,0,0,0.7,0.7073,0.7112,0.7229,0.7289,0.7358,0.7375,0.7448,0.75,0.7552,0.7641,0.7693,0.7781,0.787,0.7913,0.7914,0.8034,0.8009,0.8009,0.8015,0.8066,0.8071,0.8076,0.8008,0.8008,0.8007,0,0,0.7036,0.7098,0.7163,0.7223,0.7313,0.7366,0.7381,0.748,0.7516,0.7607,0.7647,0.7711,0.7839,0.79,0.7948,0.8008,0.8035,0.8031,0.8039,0.8087,0.8092,0.8097,0.8118,0.8125,0.8037,0.8037,0.8037,0,0.7025,0.7131,0.7193,0.7264,0.7314,0.7364,0.7431,0.7486,0.7596,0.763,0.763,0.7793,0.7855,0.796,0.7974,0.8012,0.8032,0.8019,0.8086,0.8092,0.8097,0.8118,0.8126,0.8036,0.8036,0.8036,0.8036,0,0.7114,0.7187,0.7228,0.7333,0.7389,0.7457,0.7529,0.7578,0.7612,0.7664,0.7757,0.7834,0.7925,0.7953,0.7987,0.8062,0.806,0.8073,0.8071,0.81,0.8121,0.813,0.8034,0.8035,0.8035,0.8035,0,0,0.7123,0.7262,0.7276,0.7324,0.7429,0.7487,0.7558,0.7647,0.7687,0.7763,0.7824,0.7932,0.7944,0.7998,0.804,0.8083,0.8125,0.809,0.8093,0.8093,0.8213,0.8203,0.8211,0.8144,0.8146,0.8148,0.8206,0,0.7172,0.73,0.7358,0.7461,0.7529,0.7578,0.7641,0.7711,0.7763,0.7829,0.7886,0.7961,0.7971,0.8004,0.8049,0.811,0.815,0.8107,0.8202,0.8205,0.8177,0.8222,0.8211,0.8262,0.8214,0.8216,0.8217,0,0.7246,0.7321,0.743,0.7527,0.7558,0.7612,0.7699,0.7761,0.7843,0.7878,0.7938,0.7978,0.8056,0.805,0.8158,0.8127,0.817,0.8206,0.821,0.822,0.8212,0.8233,0.828,0.8287,0.8231,0.8229,0.8229,0,0.7241,0.7369,0.7451,0.7491,0.7606,0.7644,0.7693,0.7774,0.7824,0.7901,0.7934,0.8018,0.8064,0.8128,0.8191,0.8181,0.8292,0.8292,0.8323,0.8321,0.8343,0.8341,0.8397,0.8372,0.8372,0.8372,0.8372,0,0.7289,0.7354,0.7451,0.7501,0.7575,0.7642,0.7714,0.7767,0.7839,0.7901,0.795,0.8007,0.8086,0.8153,0.8203,0.8284,0.8305,0.8335,0.8347,0.833,0.8326,0.8358,0.8356,0.8374,0.8373,0.8373,0.8373,0,0.7295,0.7363,0.7455,0.7557,0.7584,0.7634,0.7722,0.7773,0.7827,0.7905,0.7927,0.8012,0.8094,0.8163,0.8271,0.8304,0.8389,0.8404,0.8361,0.8367,0.8394,0.839,0.8472,0.8486,0.8452,0.8452,0.8452,0,0.7321,0.7372,0.7479,0.7524,0.7573,0.7645,0.7696,0.7764,0.7816,0.7914,0.7953,0.8039,0.811,0.824,0.8311,0.8395,0.8411,0.8434,0.8424,0.8405,0.8411,0.8407,0.8412,0.8434,0.8434,0.8434,0.8434,0,0.7359,0.739,0.7462,0.7546,0.7606,0.7675,0.7746,0.778,0.7862,0.7917,0.8002,0.8058,0.8168,0.8253,0.8344,0.8396,0.8429,0.8437,0.8449,0.8431,0.8404,0.8419,0.8362,0.8435,0.8435,0.8435,0.8435,0.8435,0.7375,0.7423,0.7506,0.7585,0.7645,0.7711,0.7764,0.7825,0.7896,0.7991,0.8027,0.8113,0.8196,0.8321,0.8374,0.8443,0.8447,0.8464,0.8468,0.8471,0.8468,0.8394,0.846,0.846,0.846,0.846,0.846,0,0.7415,0.7471,0.7543,0.7641,0.7703,0.7729,0.7809,0.7859,0.7934,0.8008,0.8078,0.8175,0.8258,0.8337,0.8423,0.8463,0.8481,0.8484,0.8481,0.8493,0.8459,0.844,0.8468,0.8468,0.8468,0.8468,0.8468,0.8468,0.7443,0.7525,0.7566,0.7679,0.7736,0.782,0.7864,0.7924,0.7983,0.809,0.8158,0.8209,0.8285,0.8378,0.8455,0.8476,0.8506,0.8504,0.8529,0.8497,0.8495,0.8493,0.8476,0.851,0.851,0.8557,0.8557,0.8558]},{"header":{"parameterUnit":"m.s-1","parameterCategory":1,"la1":30.2991,"la2":30.254,"lo1":-89.0895,"lo2":-89.0444,"dy":0.0017,"dx":0.0017,"nx":28,"ny":28,"refTime":"2025-11-12T03:00:00:Z","depth":0,"parameterNumber":3,"parameterNumberName":"V-component_of_WINDS"},"data":[0,0,0,0,0,0,0,0,0,0,0,0,0,0,0,0,0,0,0,0,0,0,0,0,0,0,0,0,0,0,0,0,0,0,0,0,0,0,0,0,0,0,0,0,0,0,0,0,0,0,0,0,0,0,0,0,0,0,2.064,2.0639,0,2.0599,2.0599,2.0599,2.0559,2.0558,2.0558,2.0557,2.0513,2.0512,2.0512,0,0,0,0,0,0,0,0,0,0,0,0,0,2.0679,2.0679,2.064,2.0639,2.0639,2.06,2.0599,2.0598,2.0559,2.0558,2.0557,2.0557,2.0513,2.0513,2.0512,0,0,0,0,0,0,0,0,0,0,0,0,0,2.0653,2.0679,2.064,2.0614,2.0611,2.06,2.0599,2.0598,2.0559,2.0558,2.0557,2.0556,2.0514,2.0513,2.0512,2.0521,0,0,2.0508,2.0508,0,0,0,0,0,0,0,0,2.0654,2.0651,2.0618,2.0616,2.0613,2.0583,2.0597,2.0572,2.0559,2.0579,2.0557,2.0556,2.0537,2.0534,2.0528,2.0519,2.0517,2.0508,2.0508,2.0507,2.0507,0,0,0,0,0,0,0,2.0656,2.0653,2.0624,2.0618,2.0615,2.0604,2.0599,2.0592,2.0563,2.0577,2.0574,2.057,2.0535,2.0529,2.0527,2.0516,2.0508,2.0507,2.0507,2.0506,2.0512,2.0512,0,0,0,0,0,0,2.0662,2.0655,2.0625,2.0622,2.0632,2.0604,2.0599,2.0594,2.0563,2.0557,2.0571,2.0568,2.0531,2.0528,2.0525,2.0533,2.0507,2.0506,2.0506,2.0511,2.0512,2.0513,0,0,0,0,0,0,2.0663,2.066,2.0627,2.0638,2.0633,2.0604,2.0599,2.0593,2.0587,2.0558,2.0552,2.057,2.053,2.0526,2.0522,2.0531,2.0506,2.0505,2.051,2.0511,2.0512,2.055,0,0,0,0,0,0,2.0665,2.0661,2.0665,2.0638,2.0632,2.0626,2.0599,2.0593,2.0586,2.0582,2.0556,2.055,2.053,2.0524,2.0521,2.0529,2.0504,2.0509,2.0511,2.0512,2.0548,2.0552,2.0556,0,0,0,0,0,2.0666,2.0676,2.0665,2.0662,2.0637,2.0626,2.0623,2.0599,2.0587,2.059,2.0571,2.0551,2.0531,2.0524,2.052,2.0528,2.0508,2.051,2.0512,2.0546,2.0551,2.0556,0,0,0,0,0,0,2.0704,2.0673,2.066,2.0662,2.0647,2.0619,2.0623,2.0606,2.0593,2.0591,2.0561,2.0555,2.0554,2.0541,2.0534,2.0535,2.0517,2.0518,2.0544,2.0549,2.0553,2.0556,2.0503,0,0,0,0,0,2.0713,2.0707,2.068,2.0684,2.0678,2.0652,2.0646,2.0629,2.0613,2.0606,2.0587,2.057,2.056,2.0554,2.0543,2.0546,2.0539,2.0549,2.0554,2.0557,2.0558,2.0558,2.0562,2.0518,2.0518,2.0518,0,0,2.073,2.0712,2.0711,2.0692,2.0678,2.0673,2.0647,2.0642,2.0637,2.0605,2.06,2.0585,2.0565,2.0564,2.0563,2.0553,2.0569,2.0559,2.0562,2.0561,2.056,2.0564,2.0568,2.0519,2.0519,2.0519,0,0,2.0759,2.0746,2.0748,2.0735,2.0715,2.0698,2.0698,2.0673,2.0663,2.0657,2.0633,2.0626,2.0609,2.0596,2.0587,2.061,2.0591,2.0608,2.0629,2.0629,2.0632,2.0635,2.0643,2.0646,2.0609,2.0609,2.0609,0,2.0783,2.0775,2.075,2.0747,2.0739,2.0711,2.0712,2.07,2.0678,2.0672,2.0662,2.064,2.0624,2.0619,2.0625,2.0619,2.0618,2.061,2.0634,2.0637,2.0639,2.0646,2.0649,2.0611,2.0611,2.0611,2.061,0,2.0805,2.0799,2.0803,2.0783,2.0775,2.0774,2.0749,2.0744,2.0728,2.0711,2.0706,2.0686,2.067,2.0668,2.0652,2.0661,2.0655,2.064,2.062,2.0646,2.0652,2.0654,2.0614,2.0613,2.0613,2.0612,0,0,2.0855,2.0822,2.0824,2.0814,2.0791,2.0785,2.0783,2.0768,2.0764,2.0749,2.0746,2.0732,2.0718,2.0707,2.069,2.069,2.0709,2.0674,2.0673,2.0681,2.0716,2.0727,2.0731,2.0697,2.0697,2.0697,2.0718,0,2.088,2.0874,2.0853,2.0853,2.0847,2.082,2.0817,2.0802,2.0787,2.0778,2.0761,2.0751,2.0734,2.0727,2.0726,2.0707,2.0715,2.0705,2.0691,2.0691,2.0697,2.0734,2.0746,2.0766,2.072,2.072,2.0721,0,2.0907,2.0895,2.0896,2.0872,2.0868,2.0867,2.0851,2.0844,2.0826,2.0815,2.0803,2.0784,2.0778,2.0761,2.0752,2.0746,2.0739,2.0728,2.0728,2.0726,2.0707,2.0732,2.0772,2.0775,2.0724,2.0724,2.0724,0,2.0943,2.0927,2.0925,2.0918,2.089,2.089,2.0878,2.0859,2.0851,2.0838,2.0832,2.0818,2.081,2.0798,2.0775,2.0765,2.0768,2.0749,2.0758,2.0758,2.0759,2.0759,2.0799,2.0756,2.0756,2.0756,2.0756,0,2.0972,2.0973,2.0941,2.094,2.094,2.0914,2.0915,2.09,2.0884,2.0878,2.0854,2.0849,2.0818,2.081,2.0791,2.0786,2.0783,2.0773,2.0767,2.0774,2.0776,2.0769,2.0767,2.0757,2.0757,2.0756,2.0756,0,2.1012,2.0991,2.0987,2.0961,2.0955,2.0956,2.0933,2.0931,2.0914,2.0907,2.0904,2.0877,2.0866,2.0841,2.0823,2.081,2.0809,2.0801,2.0816,2.0813,2.0822,2.0821,2.0858,2.0861,2.0817,2.0818,2.0818,0,2.1031,2.1032,2.1007,2.1002,2.0991,2.0984,2.0976,2.0951,2.0944,2.0923,2.0923,2.091,2.0898,2.088,2.0858,2.0844,2.0834,2.0848,2.0832,2.0838,2.0833,2.0833,2.0833,2.0851,2.0852,2.0852,2.0853,0,2.1068,2.1058,2.1048,2.1035,2.1027,2.1016,2.1002,2.0999,2.0971,2.0964,2.0953,2.0944,2.0925,2.0912,2.0894,2.0881,2.0862,2.0858,2.0859,2.0866,2.0874,2.0869,2.0825,2.0857,2.0857,2.0856,2.0856,2.0856,2.1098,2.1096,2.1079,2.1069,2.1057,2.1045,2.1041,2.1024,2.1014,2.0998,2.0984,2.0973,2.0954,2.0929,2.0916,2.0907,2.0898,2.0899,2.09,2.09,2.0903,2.0877,2.0904,2.0904,2.0903,2.0903,2.0903,0,2.1132,2.112,2.1111,2.1094,2.1086,2.107,2.1055,2.1049,2.1041,2.1025,2.1014,2.1,2.0987,2.0965,2.0949,2.0946,2.0937,2.0943,2.0943,2.094,2.0912,2.0913,2.0951,2.0951,2.0951,2.0951,2.0951,2.0951,2.1149,2.1146,2.1134,2.1124,2.1111,2.1102,2.1094,2.1083,2.107,2.1057,2.1046,2.1032,2.1013,2.0996,2.0983,2.0977,2.0972,2.098,2.0971,2.0946,2.0942,2.0937,2.0937,2.098,2.098,2.0999,2.0999,2.0999]}]]